カタログに戻る

DELTA 1 DEB

運用中SSO
NORAD 7137·DEBRIS·🇺🇸 United States

打ち上げ Nov 6, 1973 から Vandenberg Space Force Base

Loading…

次のパス (今後24時間)

TLE

最新Source: Space-Track

元期: Sep 14, 2026, 09:39 UTC

1 07137U 73086DB  26257.40219205  .00000196  00000-0  14034-2 0  9997
2 07137 101.7493 243.1046 0036322 304.9538 217.1962 12.59237847418158

AllMySatでDELTA 1 DEBをリアルタイム追跡

Download on the App Store